TimeAEST,TemperatureF,Dew PointF,Humidity,Sea Level PressureIn,VisibilityMPH,Wind Direction,Wind SpeedMPH,Gust SpeedMPH,PrecipitationIn,Events,Conditions,WindDirDegrees,DateUTC
12:00 AM,76,75,94,29.84,,South,9.2,,,,Overcast,170,2012-03-25 14:00:00
12:00 AM,77.0,75.2,94,29.83,5.6,South,9.2,-,N/A,Rain,Light Rain Showers,170,2012-03-25 14:00:00
12:30 AM,77.0,73.4,89,29.83,6.2,South,9.2,-,N/A,Rain,Light Rain Showers,190,2012-03-25 14:30:00
1:00 AM,77,74,88,29.83,,South,8.1,,,,,190,2012-03-25 15:00:00
1:00 AM,77.0,73.4,89,29.80,5.0,South,8.1,-,N/A,Rain,Light Rain Showers,190,2012-03-25 15:00:00
1:30 AM,77.0,73.4,89,29.80,5.0,South,10.4,-,N/A,Rain,Light Rain Showers,180,2012-03-25 15:30:00
2:00 AM,77.0,75.2,94,29.80,5.6,South,9.2,-,N/A,,Overcast,170,2012-03-25 16:00:00
2:30 AM,77.0,75.2,94,29.80,3.7,South,9.2,-,N/A,Rain,Light Rain Showers,180,2012-03-25 16:30:00
3:00 AM,77,75,92,29.80,,South,9.2,,,,Overcast,180,2012-03-25 17:00:00
3:00 AM,77.0,75.2,94,29.80,3.7,South,9.2,-,N/A,Rain,Light Rain Showers,180,2012-03-25 17:00:00
3:30 AM,77.0,75.2,94,29.77,6.2,South,11.5,-,N/A,,Overcast,180,2012-03-25 17:30:00
3:55 AM,77.0,75.2,94,29.77,6.2,South,11.5,-,N/A,,Overcast,180,2012-03-25 17:55:00
4:00 AM,77,75,91,29.80,,South,11.5,,,,,180,2012-03-25 18:00:00
4:00 AM,77.0,75.2,94,29.77,5.6,South,11.5,-,N/A,,Overcast,180,2012-03-25 18:00:00
4:18 AM,77.0,75.2,94,29.77,3.7,South,11.5,-,N/A,Rain,Light Rain Showers,180,2012-03-25 18:18:00
4:30 AM,77.0,75.2,94,29.80,2.5,South,10.4,-,N/A,Rain,Light Rain Showers,170,2012-03-25 18:30:00
5:00 AM,77.0,75.2,94,29.80,1.9,South,10.4,-,N/A,Rain,Light Rain Showers,170,2012-03-25 19:00:00
5:30 AM,77.0,75.2,94,29.80,3.7,SSE,11.5,-,N/A,Rain,Light Rain Showers,150,2012-03-25 19:30:00
5:56 AM,77.0,75.2,94,29.80,1.9,SSE,12.7,-,N/A,Rain,Light Rain Showers,160,2012-03-25 19:56:00
6:00 AM,77,75,93,29.82,2,SSE,11.5,,,Rain,Light Rain Showers,160,2012-03-25 20:00:00
6:00 AM,77.0,75.2,94,29.80,1.9,SSE,11.5,-,N/A,Rain,Light Rain Showers,160,2012-03-25 20:00:00
6:30 AM,77.0,75.2,94,29.80,3.7,South,10.4,-,N/A,Rain,Light Rain Showers,190,2012-03-25 20:30:00
7:00 AM,77,76,94,29.84,,SSE,6.9,,,,,160,2012-03-25 21:00:00
7:00 AM,77.0,75.2,94,29.83,1.9,SSE,6.9,-,N/A,Rain,Light Rain Showers,160,2012-03-25 21:00:00
7:15 AM,77.0,75.2,94,29.83,0.3,South,9.2,-,N/A,Rain,Rain Showers,170,2012-03-25 21:15:00
7:30 AM,75.2,75.2,100,29.86,0.3,SSE,18.4,-,N/A,Rain,Rain Showers,160,2012-03-25 21:30:00
8:00 AM,77.0,75.2,94,29.86,0.3,SE,17.3,-,N/A,Rain,Light Rain Showers,130,2012-03-25 22:00:00
8:11 AM,77.0,75.2,94,29.86,0.6,South,9.2,-,N/A,Rain,Light Rain Showers,170,2012-03-25 22:11:00
8:30 AM,77.0,75.2,94,29.86,1.2,South,12.7,-,N/A,Rain,Light Rain Showers,190,2012-03-25 22:30:00
9:00 AM,77,75,93,29.87,1,South,10.4,,,Rain,Light Rain Showers,190,2012-03-25 23:00:00
9:00 AM,77.0,75.2,94,29.86,1.2,South,10.4,-,N/A,Rain,Light Rain Showers,190,2012-03-25 23:00:00
9:30 AM,77.0,75.2,94,29.86,1.9,SSE,10.4,-,N/A,Rain,Light Rain Showers,150,2012-03-25 23:30:00
10:00 AM,77,76,95,29.91,,ESE,9.2,,,,,120,2012-03-26 00:00:00
10:00 AM,77.0,75.2,94,29.89,1.9,ESE,9.2,-,N/A,Rain,Light Rain Showers,120,2012-03-26 00:00:00
10:20 AM,77.0,75.2,94,29.92,3.1,ESE,10.4,-,N/A,Rain,Light Rain Showers,120,2012-03-26 00:20:00
10:30 AM,77.0,75.2,94,29.89,3.7,SSE,6.9,-,N/A,Rain,Light Rain Showers,160,2012-03-26 00:30:00
11:00 AM,77.0,75.2,94,29.89,3.7,West,5.8,-,N/A,Rain,Light Rain Showers,270,2012-03-26 01:00:00
11:30 AM,77.0,75.2,94,29.89,3.7,West,1.2,-,N/A,Rain,Light Rain Showers,270,2012-03-26 01:30:00
12:00 PM,76,76,99,29.87,7,ESE,8.1,,,,Partly Cloudy,120,2012-03-26 02:00:00
12:00 PM,77.0,75.2,94,29.86,6.2,ESE,8.1,-,N/A,,Overcast,110,2012-03-26 02:00:00
12:30 PM,77.0,75.2,94,29.86,6.2,South,5.8,-,N/A,,Mostly Cloudy,170,2012-03-26 02:30:00
1:00 PM,77.0,73.4,89,29.86,6.2,South,10.4,-,N/A,Rain,Light Rain,190,2012-03-26 03:00:00
1:20 PM,77.0,73.4,89,29.83,3.7,South,10.4,-,N/A,Rain,Light Rain Showers,180,2012-03-26 03:20:00
1:30 PM,77.0,73.4,89,29.83,3.7,South,10.4,-,N/A,Rain,Light Rain Showers,170,2012-03-26 03:30:00
2:00 PM,77.0,73.4,89,29.80,5.0,South,5.8,-,N/A,Rain,Light Rain Showers,170,2012-03-26 04:00:00
2:30 PM,77.0,73.4,89,29.80,6.2,SSW,3.5,-,N/A,,Mostly Cloudy,200,2012-03-26 04:30:00
3:00 PM,77,74,87,29.81,12,South,10.4,,,Rain,Light Rain Showers,180,2012-03-26 05:00:00
3:00 PM,77.0,73.4,89,29.80,6.2,South,10.4,-,N/A,Rain,Light Rain Showers,180,2012-03-26 05:00:00
3:07 PM,77.0,73.4,89,29.80,3.1,South,11.5,-,N/A,Rain,Light Rain Showers,180,2012-03-26 05:07:00
3:30 PM,77.0,73.4,89,29.80,6.2,South,11.5,-,N/A,Rain,Light Rain,170,2012-03-26 05:30:00
3:49 PM,77.0,73.4,89,29.80,6.2,South,12.7,-,N/A,Rain,Light Rain,180,2012-03-26 05:49:00
4:00 PM,77,74,86,29.81,,South,15.0,,,,,180,2012-03-26 06:00:00
4:00 PM,77.0,73.4,89,29.80,6.2,South,15.0,-,N/A,,Overcast,180,2012-03-26 06:00:00
4:30 PM,78.8,71.6,78,29.80,6.2,South,9.2,-,N/A,,Overcast,170,2012-03-26 06:30:00
5:00 PM,77.0,73.4,89,29.80,6.2,SE,8.1,-,N/A,Rain,Light Rain Showers,140,2012-03-26 07:00:00
5:19 PM,77.0,73.4,89,29.80,3.1,South,6.9,-,N/A,Rain,Light Rain Showers,170,2012-03-26 07:19:00
5:30 PM,77.0,75.2,94,29.83,3.1,South,9.2,-,N/A,Rain,Light Rain Showers,170,2012-03-26 07:30:00
6:00 PM,76,75,94,29.83,2,SSE,10.4,,,Rain,Light Rain Showers,160,2012-03-26 08:00:00
6:00 PM,75.2,75.2,100,29.83,2.5,SSE,10.4,-,N/A,Rain,Light Rain Showers,160,2012-03-26 08:00:00
6:30 PM,77.0,75.2,94,29.83,3.1,SSE,9.2,-,N/A,Rain,Light Rain Showers,150,2012-03-26 08:30:00
7:00 PM,76,75,94,29.86,,SSE,13.8,,,,,150,2012-03-26 09:00:00
7:00 PM,77.0,75.2,94,29.83,3.1,SSE,13.8,-,N/A,Rain,Light Rain Showers,150,2012-03-26 09:00:00
7:30 PM,75.2,73.4,94,29.86,3.7,South,15.0,-,N/A,Rain,Light Rain,180,2012-03-26 09:30:00
7:47 PM,75.2,71.6,89,29.86,6.2,South,15.0,-,N/A,,Mostly Cloudy,180,2012-03-26 09:47:00
8:00 PM,75.2,71.6,89,29.86,6.2,South,15.0,-,N/A,,Mostly Cloudy,180,2012-03-26 10:00:00
8:30 PM,75.2,69.8,83,29.86,6.2,South,17.3,-,N/A,,Mostly Cloudy,180,2012-03-26 10:30:00
9:00 PM,74,71,86,29.88,9,South,13.8,,,Rain,Light Drizzle,180,2012-03-26 11:00:00
9:00 PM,73.4,69.8,88,29.86,6.2,South,13.8,-,N/A,,Light Drizzle,180,2012-03-26 11:00:00
9:24 PM,73.4,71.6,94,29.89,3.1,South,11.5,-,N/A,Rain,Light Rain Showers,170,2012-03-26 11:24:00
9:30 PM,73.4,71.6,94,29.89,2.5,SE,11.5,-,N/A,Rain,Light Rain Showers,140,2012-03-26 11:30:00
9:33 PM,73.4,71.6,94,29.89,-9999.0,North,-9999.0,-,N/A,Rain,Light Rain Showers,0,2012-03-26 11:33:00
10:00 PM,74,71,89,29.90,,South,13.8,,,,,180,2012-03-26 12:00:00
10:00 PM,73.4,71.6,94,29.89,2.5,South,13.8,-,N/A,Rain,Light Rain Showers,180,2012-03-26 12:00:00
10:30 PM,73.4,71.6,94,29.89,3.7,South,13.8,-,N/A,Rain,Light Rain,180,2012-03-26 12:30:00
11:00 PM,73.4,71.6,94,29.89,3.7,SSE,12.7,-,N/A,Rain,Light Rain,160,2012-03-26 13:00:00
11:30 PM,73.4,71.6,94,29.89,3.7,SSE,12.7,-,N/A,Rain,Light Rain,160,2012-03-26 13:30:00